Terminal Aerodrome Forecast
Issued by NWS Cleveland, OH

Home | Current Version | Previous Version | Graphics & Text | Print | Product List | Glossary On
Versions: 1 2 3 4 5 6 7 8 9 10 11 12 13 14 15 16 17 18 19 20 21 22 23 24 25
000
FTUS41 KCLE 240500
TAFCAK
TAF
KCAK 240520Z 2406/2506 00000KT 4SM BR OVC120
      TEMPO 2409/2413 6SM BR BKN015 OVC130
     FM241300 26008KT P6SM OVC015
     FM241900 26010KT 6SM -DZ BR SCT006 OVC015=

USA.gov is the U.S. government's official web portal to all federal, state and local government web resources and services.